Flag for Norway Weather past 2 weeks in Vennesla, Norway

50 °F

Broken clouds.

Feels Like: 48 °F
Forecast: 37 / 52 °F
Wind: 6 mph from Northeast

Location: Kristiansand / Kjevik

Current Time: Oct 10, 2015 at 1:56:00 PM

Latest Report: Oct 10, 2015 at 12:50 PM

Visibility: N/A

Pressure: 30.39 "Hg

Humidity: 88%

Dew point: 46 °F

Location of VenneslaLocation

Historic Weather in Vennesla — Graph


Vennesla temperature yesterday

Maximum temperature yesterday: 50 °F (at 2:20 PM)
Minimum temperature yesterday: 46 °F (at 9:50 PM)
Average temperature yesterday: 48 °F

Past Weeks' High & Low Weather Summary

High66 °F (Sep 30, 2:20 PM)100% (Sep 27, 1:20 AM)30.72 "Hg (Sep 27, 1:20 AM)
Low37 °F (Sep 27, 4:20 AM)45% (Sep 26, 2:50 PM)29.86 "Hg (Sep 25, 12:20 PM)
Average50 °F83%30.25 "Hg
* Reported Sep 25 12:20 PM — Oct 10 12:20 PM, Vennesla, Weather by CustomWeather, © 2015

Note: Actual official high and low records may vary slightly from our data, if they occured in-between our weather recording intervals... More about our weather records


Vennesla weather history for previous 24 hours

Time TempWeatherWind HumidityBarometerVisibility
12:20 PM
Sat, Oct 10
50 °FPartly sunny.6 mph88%30.39 "HgN/A
11:50 AM50 °FBroken clouds.7 mph88%30.39 "HgN/A
11:20 AM50 °FBroken clouds.8 mph88%30.39 "HgN/A
10:50 AM48 °FBroken clouds.9 mph94%30.39 "HgN/A
10:20 AM48 °FBroken clouds.8 mph87%30.39 "HgN/A
9:50 AM46 °FBroken clouds.9 mph93%30.39 "HgN/A
9:20 AM46 °FBroken clouds.9 mph93%30.39 "HgN/A
8:50 AM46 °FBroken clouds.8 mph93%30.39 "HgN/A
8:20 AM46 °FPartly cloudy.8 mph93%30.39 "HgN/A
7:50 AM46 °FPartly cloudy.8 mph93%30.36 "HgN/A
7:20 AM46 °FPartly cloudy.7 mph93%30.36 "HgN/A
6:50 AM46 °FPassing clouds.3 mph93%30.36 "HgN/A
6:20 AM46 °FPassing clouds.7 mph93%30.36 "HgN/A
5:50 AM46 °FPassing clouds.8 mph93%30.36 "HgN/A
5:20 AM46 °FOvercast.8 mph93%30.36 "HgN/A
4:50 AM46 °FOvercast.8 mph93%30.36 "HgN/A
4:20 AM46 °FOvercast.8 mph93%30.36 "HgN/A
3:50 AM46 °FOvercast.7 mph93%30.36 "HgN/A
3:20 AM46 °FOvercast.8 mph93%30.36 "HgN/A
2:50 AM46 °FOvercast.8 mph93%30.36 "HgN/A
2:20 AM46 °FOvercast.7 mph93%30.36 "HgN/A
1:50 AM46 °FOvercast.8 mph93%30.36 "HgN/A
1:20 AM46 °FOvercast.8 mph93%30.36 "HgN/A
12:50 AM46 °FLight rain. Overcast.8 mph93%30.36 "HgN/A
12:20 AM46 °FDrizzle. Overcast.8 mph93%30.36 "HgN/A
11:50 PM
Fri, Oct 9
46 °FOvercast.9 mph93%30.36 "HgN/A
10:50 PM46 °FPassing clouds.7 mph93%30.36 "HgN/A
10:20 PM48 °FPassing clouds.8 mph87%30.33 "HgN/A
9:50 PM46 °FPartly cloudy.7 mph100%30.33 "HgN/A
9:20 PM48 °FPartly cloudy.8 mph87%30.33 "HgN/A
8:50 PM48 °FPartly cloudy.8 mph94%30.33 "HgN/A
8:20 PM48 °FPartly cloudy.8 mph94%30.33 "HgN/A
7:50 PM48 °FPartly cloudy.8 mph94%30.33 "HgN/A
7:20 PM48 °FDrizzle. Broken clouds.7 mph94%30.30 "HgN/A
6:50 PM48 °FDrizzle. Broken clouds.6 mph94%30.30 "Hg4 mi
6:20 PM50 °FDrizzle. Broken clouds.7 mph88%30.30 "Hg6 mi
5:50 PM50 °FScattered showers. Broken clouds.7 mph88%30.30 "Hg6 mi
5:20 PM50 °FLight rain. Broken clouds.8 mph88%30.30 "Hg6 mi
4:50 PM50 °FBroken clouds.7 mph88%30.30 "HgN/A
4:20 PM48 °FBroken clouds.8 mph94%30.30 "HgN/A
3:50 PM48 °FDrizzle. Partly sunny.8 mph94%30.27 "HgN/A
3:20 PM48 °FDrizzle. Partly sunny.7 mph94%30.30 "Hg3 mi
2:50 PM50 °FDrizzle. Partly sunny.9 mph94%30.27 "Hg3 mi
2:20 PM50 °FLight rain. Fog.9 mph94%30.27 "Hg3 mi
1:50 PM48 °FLight rain. Partly sunny.9 mph94%30.27 "Hg4 mi
1:20 PM48 °FLight rain. Partly sunny.9 mph94%30.27 "Hg4 mi
Weather by CustomWeather, © 2015

See weather overviewHow to use our weather pages